Regional Weather Roundup
Issued by NWS Jackson, KY

Home | Current Version | Previous Version | Graphics & Text | Print | Product List | Glossary On
Versions: 1 2 3 4 5 6 7 8 9 10 11 12 13 14 15 16 17 18 19 20 21 22 23 24 25 26 27 28 29 30 31 32 33 34 35 36 37 38 39 40 41 42 43 44 45 46 47 48 49 50
000
ASUS43 KJKL 290819
RWRJKL

EAST KENTUCKY HOURLY WEATHER ROUNDUP
NATIONAL WEATHER SERVICE JACKSON KY
400 AM EDT TUE JUL 29 2014

NOTE: "FAIR" INDICATES FEW OR NO CLOUDS BELOW 12,000 FEET WITH
NO SIGNIFICANT WEATHER AND/OR OBSTRUCTIONS TO VISIBILITY.

* THESE REPORTS ARE NOT UNDER NWS QUALITY CONTROL AND MAY NOT
  REPORT WEATHER SUCH AS PRECIPITATION AND FOG.

KYZ079-080-083-085-087-088-110-112-115-119-120-290900
...EASTERN KENTUCKY...

CITY           SKY/WX    TMP DP  RH WIND       PRES   REMARKS
JACKSON        PTCLDY    59  55  87 NW6       30.00F
LONDON         PTCLDY    61  55  81 CALM      30.01F
SOMERSET*      CLOUDY    61  59  94 CALM      30.03S
MONTICELLO*    MOCLDY    63  59  87 CALM      30.03F
WILLIAMSBURG*  MOCLDY    59  59 100 CALM      30.01
MIDDLESBORO*   CLOUDY    58  58 100 CALM      30.01S FOG
HARLAN APT*    CLOUDY    57  55  94 MISG      30.01S VSB<1/4
HAZARD APT*    MOSUNNY   61  59  94 W3        30.00
BLACK MTN*       N/A     52  52 100 VRB5        N/A
PIKEVILLE APT* CLOUDY    61  59  94 CALM      29.99S
BIG SANDY*     PTSUNNY   60  58  93 NW3       29.98S
MOREHEAD APT*  PTSUNNY   55  54  94 NW6       30.01F
ASHLAND*       CLEAR     61  54  77 NW3       29.95S
$$

KYZ035-036-041-042-044-050-067-078-099-290900
...CENTRAL KENTUCKY...

CITY           SKY/WX    TMP DP  RH WIND       PRES   REMARKS
MT STERLING*   CLEAR     55  54  94 CALM      30.02S
FLEMING/MASON* CLEAR     54  53  97 NW5       30.01S
DANVILLE*      CLEAR     54  54 100 NW3       30.03S
RICHMOND*      CLEAR     55  52  88 CALM      30.01S
LEXINGTON      CLEAR     55  51  86 NW5       30.02S
FRANKFORT      CLEAR     53  51  93 NW5       30.01F
$$

KYZ091>093-OHZ055-061-077-WVZ005-015-034-035-042-290900
...SOUTHERN OHIO/WEST VIRGINIA...

CITY           SKY/WX    TMP DP  RH WIND       PRES   REMARKS
COVINGTON      CLEAR     52  48  86 W3        30.01F
COLUMBUS       CLOUDY    62  54  74 NE7       29.96F
DAYTON         PTCLDY    53  50  89 NW7       30.01S
WILMINGTON     MOCLDY    54  49  83 NW8       29.99S
HUNTINGTON     PTCLDY    59  58  96 W5        29.95F
CHARLESTON     PTCLDY    62  62 100 W5        29.94F FOG
PINEVILLE*     CLOUDY    63  63 100 MISG      30.02S
BECKLEY        CLOUDY    58  56  93 W3        29.98S
BLUEFIELD      CLOUDY    60  56  86 W6        30.00S
$$

VAZ002-007-008-TNZ017-027-036-066-071-290900
...SOUTHWEST VIRGINIA/EAST TENNESSEE...

CITY           SKY/WX    TMP DP  RH WIND       PRES   REMARKS
WISE*          CLOUDY    59  59 100 NW5       30.03S
JONESVILLE*      N/A     55  55 100 CALM      30.01F
ABINGDON*      CLOUDY    60  58  93 CALM      30.00S
BRISTOL        CLEAR     58  55  90 CALM      29.99F
KNOXVILLE      PTCLDY    64  59  83 CALM      29.98F
OAK RIDGE      CLOUDY    64  61  90 CALM      30.00F
CROSSVILLE     PTCLDY    62  57  83 NW6       30.04F
NASHVILLE      CLEAR     65  56  72 N7        30.04F
$$

...KEY TO REMARKS...
VSB - VISIBILITY IN MILES
WCI - WIND CHILL INDEX
HX  - HEAT INDEX

$$


USA.gov is the U.S. government's official web portal to all federal, state and local government web resources and services.